Weather History for Valparaiso, IN

Change the Weather History Date:

Sunday, February 3, 2013

  Actual Average Record
Temperature  
Mean Temperature 17 °F 25 °F  
Max Temperature 24 °F 32 °F 48 °F (2003)
Min Temperature 10 °F 17 °F -5 °F (2011)
Degree Days  
Heating Degree Days 48 40  
Month to date heating degree days 149 122  
Since 1 July heating degree days 3510 3807  
Cooling Degree Days 0 0  
Month to date cooling degree days 0 0  
Year to date cooling degree days 0 0  
Moisture  
Dew Point 11 °F    
Average Humidity 77    
Maximum Humidity 93    
Minimum Humidity 59    
Precipitation  
Precipitation T in 0.05 in 0.22 in (2003)
Month to date precipitation T 0.13  
Year to date precipitation 2.29 1.88  
Sea Level Pressure  
Sea Level Pressure 30.02 in    
Wind  
Wind Speed 10 mph (West)    
Max Wind Speed 18 mph    
Max Gust Speed 24 mph    
Visibility 6 miles    
Events Snow    
T = Trace of Precipitation, MM = Missing Value Source: NWS Daily Summary

Daily Weather History Graph

Daily Weather History Graph

Search for Another Location

Airport:

Trip Planner

Search our weather history database for the weather conditions in past years. The results will help you decide how hot, cold, wet, or windy it might be!

Date:

Astronomy

Feb. 03, 2013 Rise Set
Actual Time 6:57 AM CST 5:07 PM CST
Civil Twilight 6:28 AM CST 5:36 PM CST
Nautical Twilight 5:55 AM CST 6:09 PM CST
Astronomical Twilight 5:22 AM CST 6:41 PM CST
Moon 12:24 AM CST (2/3) 10:43 AM CST (2/3)
Length of Visible Light 11h 08m
Length of Day
10h 09m
Waning Gibbous, 48% of the Moon is Illuminated
Feb 3
Waning Gibbous
Feb 10
New
Feb 17
First Quarter
Feb 25
Full
Mar 4
Last Quarter

Hourly Weather History & Observations

Time (CST) Temp. Windchill Dew Point Humidity Pressure Visibility Wind Dir Wind Speed Gust Speed Precip Events Conditions
12:53 AM 12.0 °F 0.5 °F 6.1 °F 77% 30.04 in 10.0 mi West 8.1 mph - N/A   Overcast
1:45 AM 10.4 °F -1.5 °F 5.0 °F 79% 29.99 in 10.0 mi West 8.1 mph - N/A   Overcast
1:53 AM 10.9 °F 1.4 °F 3.9 °F 73% 30.03 in 10.0 mi West 5.8 mph - N/A   Overcast
2:53 AM 10.9 °F -0.8 °F 3.0 °F 70% 30.01 in 10.0 mi West 8.1 mph - N/A   Overcast
3:53 AM 10.0 °F -0.9 °F 3.0 °F 73% 29.99 in 10.0 mi WSW 6.9 mph - N/A   Mostly Cloudy
4:53 AM 10.0 °F 0.4 °F 3.0 °F 73% 29.99 in 10.0 mi West 5.8 mph - N/A   Overcast
6:53 AM 10.9 °F -0.8 °F 5.0 °F 77% 30.01 in 10.0 mi WSW 8.1 mph - N/A   Overcast
7:53 AM 12.0 °F 0.5 °F 8.1 °F 84% 30.02 in 4.0 mi West 8.1 mph - 0.00 in Snow Light Snow
8:53 AM 12.9 °F 2.6 °F 9.0 °F 84% 30.01 in 4.0 mi WSW 6.9 mph - 0.00 in Snow Light Snow
9:16 AM 14.0 °F 2.0 °F 10.4 °F 86% 29.96 in 2.0 mi WSW 9.2 mph - 0.00 in Snow Light Snow
9:21 AM 14.0 °F 1.2 °F 10.4 °F 86% 29.96 in 1.8 mi WSW 10.4 mph - 0.00 in Snow Light Snow
9:37 AM 14.0 °F 2.0 °F 10.4 °F 86% 29.97 in 2.0 mi WSW 9.2 mph - 0.00 in Snow Light Snow
9:46 AM 15.8 °F 4.2 °F 10.4 °F 79% 29.98 in 1.5 mi WSW 9.2 mph - 0.00 in Snow Light Snow
9:53 AM 15.1 °F 2.5 °F 10.9 °F 84% 30.02 in 1.5 mi West 10.4 mph - 0.00 in Snow Light Snow
10:33 AM 17.6 °F 5.0 °F 12.2 °F 79% 29.98 in 2.5 mi West 11.5 mph - 0.00 in Snow Light Snow
10:41 AM 17.6 °F 5.7 °F 12.2 °F 79% 29.98 in 2.5 mi West 10.4 mph - 0.00 in Snow Light Snow
10:43 AM 17.6 °F 5.0 °F 12.2 °F 79% 29.98 in 3.0 mi West 11.5 mph - 0.00 in Snow Light Snow
10:53 AM 17.1 °F 5.0 °F 12.0 °F 81% 30.02 in 3.0 mi West 10.4 mph - 0.00 in Snow Light Snow
11:53 AM 19.0 °F 6.1 °F 12.0 °F 74% 30.01 in 9.0 mi West 12.7 mph - 0.00 in   Overcast
12:08 PM 19.4 °F 7.2 °F 12.2 °F 74% 29.98 in 7.0 mi West 11.5 mph - 0.00 in Snow Light Snow
12:53 PM 19.9 °F 7.3 °F 12.9 °F 74% 30.01 in 6.0 mi West 12.7 mph - 0.00 in   Haze
1:53 PM 23.0 °F 10.1 °F 12.9 °F 65% 30.02 in 10.0 mi WNW 15.0 mph 23.0 mph 0.00 in   Overcast
2:17 PM 24.8 °F 13.4 °F 12.2 °F 59% 29.99 in 10.0 mi WNW 12.7 mph 20.7 mph N/A   Mostly Cloudy
2:53 PM 23.0 °F 12.4 °F 10.9 °F 60% 30.04 in 10.0 mi WNW 10.4 mph 19.6 mph N/A   Partly Cloudy
3:53 PM 21.9 °F 8.2 °F 10.9 °F 63% 30.06 in 10.0 mi West 16.1 mph - N/A   Clear
4:53 PM 19.9 °F 6.2 °F 10.9 °F 68% 30.06 in 10.0 mi West 15.0 mph - N/A   Clear
5:53 PM 18.0 °F 6.9 °F 10.0 °F 71% 30.08 in 10.0 mi WSW 9.2 mph - N/A   Clear
6:53 PM 18.0 °F 6.9 °F 10.0 °F 71% 30.07 in 10.0 mi WSW 9.2 mph - N/A   Mostly Cloudy
7:53 PM 21.0 °F 8.6 °F 12.0 °F 68% 30.07 in 10.0 mi West 12.7 mph - N/A   Overcast
8:53 PM 19.9 °F 9.3 °F 12.9 °F 74% 30.08 in 10.0 mi West 9.2 mph - N/A   Overcast
9:53 PM 21.0 °F 10.6 °F 12.9 °F 71% 30.09 in 10.0 mi West 9.2 mph - N/A   Overcast
10:38 PM 19.4 °F 11.5 °F 15.8 °F 86% 30.05 in 2.5 mi West 5.8 mph - 0.00 in Snow Light Snow
10:53 PM 19.9 °F 11.1 °F 16.0 °F 85% 30.09 in 3.0 mi West 6.9 mph - 0.00 in Snow Light Snow
11:16 PM 19.4 °F 11.5 °F 15.8 °F 86% 30.05 in 2.5 mi West 5.8 mph - 0.00 in Snow Light Snow
11:33 PM 19.4 °F 12.8 °F 17.6 °F 93% 30.05 in 2.0 mi West 4.6 mph - 0.00 in Snow Light Snow
11:53 PM 19.9 °F 12.1 °F 17.1 °F 89% 30.09 in 2.0 mi West 5.8 mph - 0.00 in Snow Light Snow